Location: Aranbee
(34.0885°N, 118.2342°W)
Time: 23:05:31
(UTC+00:00)

A-11 Canister half - Pass Details

Date: 30 July 2021
Orbit: 1515 x 1685 km, 47.2° (Epoch: 22 September)

Event Time Altitude Azimuth Distance (km) Brightness Sun altitude
Rises 03:53:05 0° 282° (WNW) 4,849 13.1 -11.3°
Reaches altitude 10° 03:56:32 10° 290° (WNW) 3,885 12.5 -11.9°
Maximum altitude 04:05:43 39° 356° (N) 2,344 10.3 -13.5°
Drops below altitude 10° 04:15:02 10° 63° (ENE) 3,951 10.9 -15.1°
Sets 04:18:35 0° 71° (ENE) 4,938 11.3 -15.7°
